• Em Portugal
  • Lista de países
  • Para 7 dias
  • Temperatura da água
  • Mapas de satélite
  • Mapa do tempo
  • Widgets de tempo
  • user-avatar
    Iniciar Sessão

    Previsão horária em Lisboa

    Hoje, 19 Agosto, Sábado

    Tempo Temperatura Precipitação Vento Pressão Humidade
    00:00 +21°C° 0 mm 6 m/s 759 mmHg 75%
    01:00 +21°C° 0 mm 6 m/s 759 mmHg 76%
    02:00 +20°C° 0 mm 6 m/s 759 mmHg 77%
    03:00 +20°C° 0 mm 5 m/s 759 mmHg 81%
    04:00 +19°C° 0 mm 5 m/s 759 mmHg 84%
    05:00 +19°C° 0 mm 5 m/s 758 mmHg 88%
    06:00 +21°C° 0 mm 5 m/s 759 mmHg 77%
    07:00 +24°C° 0 mm 6 m/s 759 mmHg 66%
    08:00 +27°C° 0 mm 6 m/s 759 mmHg 55%
    09:00 +30°C° 0 mm 6 m/s 759 mmHg 46%
    10:00 +34°C° 0 mm 6 m/s 758 mmHg 37%
    11:00 +38°C° 0 mm 6 m/s 758 mmHg 29%
    12:00 +39°C° 0 mm 6 m/s 758 mmHg 27%
    13:00 +39°C° 0 mm 7 m/s 758 mmHg 25%
    14:00 +40°C° 0 mm 7 m/s 757 mmHg 23%
    15:00 +38°C° 0 mm 8 m/s 757 mmHg 28%
    16:00 +35°C° 0 mm 8 m/s 757 mmHg 33%
    17:00 +33°C° 0 mm 8 m/s 757 mmHg 38%
    18:00 +31°C° 0 mm 8 m/s 757 mmHg 42%
    19:00 +28°C° 0 mm 7 m/s 757 mmHg 47%
    20:00 +26°C° 0 mm 6 m/s 758 mmHg 52%
    21:00 +24°C° 0 mm 6 m/s 758 mmHg 53%
    22:00 +23°C° 0 mm 5 m/s 758 mmHg 55%
    23:00 +23°C° 0 mm 5 m/s 757 mmHg 56%

    Amanhã, 20 Agosto, Domingo

    Tempo Temperatura Precipitação Vento Pressão Humidade
    00:00 +23°C° 0 mm 4 m/s 757 mmHg 56%
    01:00 +22°C° 0 mm 4 m/s 757 mmHg 57%
    02:00 +22°C° 0 mm 3 m/s 757 mmHg 57%
    03:00 +22°C° 0 mm 3 m/s 757 mmHg 55%
    04:00 +22°C° 0 mm 3 m/s 757 mmHg 53%
    05:00 +23°C° 0 mm 2 m/s 757 mmHg 51%
    06:00 +26°C° 0 mm 2 m/s 757 mmHg 44%
    07:00 +29°C° 0 mm 2 m/s 757 mmHg 37%
    08:00 +32°C° 0 mm 2 m/s 757 mmHg 29%
    09:00 +35°C° 0 mm 2 m/s 757 mmHg 27%
    10:00 +37°C° 0 mm 2 m/s 757 mmHg 25%
    11:00 +39°C° 0 mm 3 m/s 757 mmHg 22%
    12:00 +39°C° 0 mm 3 m/s 757 mmHg 24%
    13:00 +40°C° 0 mm 4 m/s 757 mmHg 25%
    14:00 +38°C° 0 mm 4 m/s 756 mmHg 26%
    15:00 +37°C° 0 mm 4 m/s 756 mmHg 29%
    16:00 +35°C° 0 mm 4 m/s 756 mmHg 33%
    17:00 +34°C° 0 mm 4 m/s 756 mmHg 36%
    18:00 +31°C° 0 mm 3 m/s 756 mmHg 41%
    19:00 +28°C° 0 mm 2 m/s 757 mmHg 46%
    20:00 +26°C° 0 mm 2 m/s 757 mmHg 51%
    21:00 +25°C° 0 mm 2 m/s 757 mmHg 52%
    22:00 +25°C° 0 mm 1 m/s 757 mmHg 52%
    23:00 +24°C° 0 mm 1 m/s 757 mmHg 53%

    Depois de amanhã, 21 Agosto, Segunda-feira

    Tempo Temperatura Precipitação Vento Pressão Humidade
    00:00 +24°C° 0 mm 1 m/s 756 mmHg 54%
    01:00 +24°C° 0 mm 1 m/s 756 mmHg 55%
    02:00 +24°C° 0 mm 1 m/s 756 mmHg 56%
    03:00 +23°C° 0 mm 1 m/s 756 mmHg 57%
    04:00 +23°C° 0 mm 1 m/s 756 mmHg 59%
    05:00 +23°C° 0 mm 1 m/s 756 mmHg 60%
    06:00 +26°C° 0 mm 1 m/s 756 mmHg 52%
    07:00 +28°C° 0 mm 2 m/s 757 mmHg 44%
    08:00 +31°C° 0 mm 2 m/s 757 mmHg 37%
    09:00 +34°C° 0 mm 2 m/s 757 mmHg 33%
    10:00 +36°C° 0 mm 3 m/s 757 mmHg 30%
    11:00 +37°C° 0 mm 3 m/s 757 mmHg 27%
    12:00 +37°C° 0 mm 4 m/s 757 mmHg 28%
    13:00 +37°C° 0 mm 4 m/s 756 mmHg 28%
    14:00 +37°C° 0 mm 5 m/s 756 mmHg 29%
    15:00 +36°C° 0 mm 5 m/s 756 mmHg 32%
    16:00 +35°C° 0 mm 5 m/s 756 mmHg 35%
    17:00 +33°C° 0 mm 5 m/s 756 mmHg 38%
    18:00 +30°C° 0 mm 4 m/s 756 mmHg 44%
    19:00 +28°C° 0 mm 4 m/s 757 mmHg 51%
    20:00 +25°C° 0 mm 3 m/s 758 mmHg 58%
    21:00 +25°C° 0 mm 3 m/s 758 mmHg 61%
    22:00 +24°C° 0 mm 2 m/s 758 mmHg 64%
    23:00 +23°C° 0 mm 2 m/s 758 mmHg 67%

    22 Agosto, Terça-feira

    Tempo Temperatura Precipitação Vento Pressão Humidade
    00:00 +23°C° 0 mm 2 m/s 758 mmHg 69%
    01:00 +21°C° 0 mm 2 m/s 757 mmHg 71%
    02:00 +21°C° 0 mm 2 m/s 757 mmHg 73%
    03:00 +21°C° 0 mm 2 m/s 758 mmHg 75%
    04:00 +20°C° 0 mm 2 m/s 758 mmHg 78%
    05:00 +20°C° 0 mm 2 m/s 758 mmHg 80%
    06:00 +23°C° 0 mm 2 m/s 758 mmHg 69%
    07:00 +26°C° 0 mm 2 m/s 759 mmHg 59%
    08:00 +29°C° 0 mm 3 m/s 759 mmHg 49%
    09:00 +31°C° 0 mm 3 m/s 759 mmHg 42%
    10:00 +34°C° 0 mm 4 m/s 759 mmHg 35%
    11:00 +36°C° 0 mm 4 m/s 759 mmHg 29%
    12:00 +37°C° 0 mm 5 m/s 758 mmHg 28%
    13:00 +38°C° 0 mm 6 m/s 758 mmHg 27%
    14:00 +38°C° 0 mm 6 m/s 758 mmHg 26%
    15:00 +36°C° 0 mm 7 m/s 758 mmHg 29%
    16:00 +34°C° 0 mm 7 m/s 758 mmHg 31%
    17:00 +33°C° 0 mm 7 m/s 758 mmHg 34%
    18:00 +29°C° 0 mm 7 m/s 758 mmHg 44%
    19:00 +26°C° 0 mm 7 m/s 758 mmHg 53%
    20:00 +23°C° 0 mm 7 m/s 759 mmHg 63%
    21:00 +22°C° 0 mm 6 m/s 759 mmHg 65%
    22:00 +22°C° 0 mm 6 m/s 758 mmHg 67%
    23:00 +21°C° 0 mm 6 m/s 758 mmHg 69%

    23 Agosto, Quarta-feira

    Tempo Temperatura Precipitação Vento Pressão Humidade
    00:00 +21°C° 0 mm 5 m/s 758 mmHg 70%
    01:00 +20°C° 0 mm 4 m/s 758 mmHg 71%
    02:00 +20°C° 0 mm 4 m/s 758 mmHg 71%
    03:00 +20°C° 0 mm 4 m/s 758 mmHg 74%
    04:00 +19°C° 0 mm 4 m/s 758 mmHg 77%
    05:00 +19°C° 0 mm 5 m/s 758 mmHg 81%
    06:00 +22°C° 0 mm 5 m/s 758 mmHg 69%
    07:00 +26°C° 0 mm 5 m/s 758 mmHg 58%
    08:00 +28°C° 0 mm 5 m/s 759 mmHg 47%
    09:00 +32°C° 0 mm 5 m/s 758 mmHg 39%
    10:00 +35°C° 0 mm 5 m/s 758 mmHg 30%
    11:00 +39°C° 0 mm 6 m/s 758 mmHg 21%
    12:00 +39°C° 0 mm 6 m/s 758 mmHg 20%
    13:00 +40°C° 0 mm 7 m/s 758 mmHg 20%
    14:00 +40°C° 0 mm 8 m/s 757 mmHg 19%
    15:00 +38°C° 0 mm 8 m/s 757 mmHg 22%
    16:00 +35°C° 0 mm 8 m/s 757 mmHg 24%
    17:00 +34°C° 0 mm 8 m/s 757 mmHg 27%
    18:00 +30°C° 0 mm 7 m/s 758 mmHg 35%
    19:00 +28°C° 0 mm 7 m/s 758 mmHg 43%
    20:00 +24°C° 0 mm 6 m/s 758 mmHg 50%
    21:00 +23°C° 0 mm 6 m/s 758 mmHg 55%
    22:00 +22°C° 0 mm 6 m/s 758 mmHg 60%
    23:00 +21°C° 0 mm 6 m/s 758 mmHg 65%

    24 Agosto, Quinta-feira

    Tempo Temperatura Precipitação Vento Pressão Humidade
    00:00 +21°C° 0 mm 6 m/s 758 mmHg 69%
    01:00 +20°C° 0 mm 6 m/s 758 mmHg 72%
    02:00 +20°C° 0 mm 5 m/s 758 mmHg 76%
    03:00 +19°C° 0 mm 5 m/s 758 mmHg 80%
    04:00 +19°C° 0 mm 5 m/s 758 mmHg 84%
    05:00 +17°C° 0 mm 5 m/s 758 mmHg 87%
    06:00 +21°C° 0 mm 5 m/s 758 mmHg 76%
    07:00 +23°C° 0 mm 5 m/s 758 mmHg 64%
    08:00 +26°C° 0 mm 5 m/s 758 mmHg 53%
    09:00 +29°C° 0 mm 5 m/s 758 mmHg 45%
    10:00 +32°C° 0 mm 6 m/s 758 mmHg 37%
    11:00 +34°C° 0 mm 6 m/s 758 mmHg 29%
    12:00 +34°C° 0 mm 6 m/s 758 mmHg 28%
    13:00 +34°C° 0 mm 7 m/s 757 mmHg 28%
    14:00 +34°C° 0 mm 7 m/s 757 mmHg 28%
    15:00 +33°C° 0 mm 7 m/s 757 mmHg 32%
    16:00 +30°C° 0 mm 7 m/s 757 mmHg 37%
    17:00 +28°C° 0 mm 7 m/s 757 mmHg 42%
    18:00 +26°C° 0 mm 7 m/s 758 mmHg 54%
    19:00 +23°C° 0 mm 6 m/s 758 mmHg 66%
    20:00 +21°C° 0 mm 6 m/s 758 mmHg 78%
    21:00 +20°C° 0 mm 6 m/s 758 mmHg 82%
    22:00 +19°C° 0 mm 5 m/s 758 mmHg 87%
    23:00 +19°C° 0 mm 5 m/s 758 mmHg 91%
    Mostrar mais